Weather History for Norfolk, NE

Change the Weather History Date:

Wednesday, January 30, 2013

  Actual Average Record
Temperature  
Mean Temperature 16 °F 23 °F  
Max Temperature 23 °F 34 °F 67 °F (2012)
Min Temperature 9 °F 13 °F -25 °F (1902)
Degree Days  
Heating Degree Days 49 42  
Month to date heating degree days 1209 1279  
Since 1 July heating degree days 3821 3985  
Cooling Degree Days 0 0  
Month to date cooling degree days 0 0  
Year to date cooling degree days 0 0  
Moisture  
Dew Point 11 °F    
Average Humidity 72    
Maximum Humidity 84    
Minimum Humidity 59    
Precipitation  
Precipitation T in 0.02 in 0.40 in (1922)
Month to date precipitation 0.24 0.57  
Year to date precipitation 0.24 0.57  
Snow  
Snow T in 0.30 in - ()
Month to date snowfall 0.3 6.2  
Since 1 July snowfall 7.8 17.1  
Snow Depth T in    
Sea Level Pressure  
Sea Level Pressure 29.88 in    
Wind  
Wind Speed 19 mph (NNW)    
Max Wind Speed 33 mph    
Max Gust Speed 43 mph    
Visibility 8 miles    
Events Snow    
T = Trace of Precipitation, MM = Missing Value Source: NWS Daily Summary

Daily Weather History Graph

Daily Weather History Graph

Search for Another Location

Airport:

Trip Planner

Search our weather history database for the weather conditions in past years. The results will help you decide how hot, cold, wet, or windy it might be!

Date:

Astronomy

Jan. 30, 2013 Rise Set
Actual Time 7:44 AM CST 5:42 PM CST
Civil Twilight 7:14 AM CST 6:12 PM CST
Nautical Twilight 6:40 AM CST 6:45 PM CST
Astronomical Twilight 6:08 AM CST 7:18 PM CST
Moon 9:47 PM CST (1/30) 9:08 AM CST (1/30)
Length of Visible Light 10h 57m
Length of Day
9h 58m
Waning Gibbous, 87% of the Moon is Illuminated
Jan 30
Waning Gibbous
Feb 3
Last Quarter
Feb 10
New
Feb 17
First Quarter
Feb 25
Full

Hourly Weather History & Observations

Time (CST) Temp. Windchill Dew Point Humidity Pressure Visibility Wind Dir Wind Speed Gust Speed Precip Events Conditions
12:56 AM 23.0 °F 6.3 °F 18.0 °F 81% 29.81 in 7.0 mi NNW 26.5 mph 33.4 mph N/A   Overcast
1:04 AM 21.2 °F 3.9 °F 17.6 °F 86% 29.76 in 8.0 mi NNW 26.5 mph 38.0 mph N/A   Overcast
1:56 AM 21.9 °F 5.1 °F 18.0 °F 85% 29.82 in 7.0 mi NNW 25.3 mph 35.7 mph 0.00 in   Overcast
2:36 AM 21.2 °F 3.3 °F 17.6 °F 86% 29.77 in 9.0 mi North 28.8 mph 40.3 mph 0.00 in   Overcast
2:56 AM 21.9 °F 5.5 °F 17.1 °F 82% 29.83 in 5.0 mi NNW 24.2 mph 42.6 mph 0.00 in Snow Light Snow
3:56 AM 21.0 °F 4.3 °F 15.1 °F 78% 29.84 in 8.0 mi NNW 24.2 mph 38.0 mph 0.00 in Snow Light Snow
4:33 AM 21.2 °F 4.2 °F 15.8 °F 80% 29.79 in 3.0 mi NNW 25.3 mph 34.5 mph 0.00 in Snow Light Snow
4:56 AM 21.0 °F 5.0 °F 15.1 °F 78% 29.85 in 8.0 mi NNW 21.9 mph 34.5 mph 0.00 in Snow Light Snow
5:56 AM 21.0 °F 4.6 °F 12.9 °F 71% 29.87 in 7.0 mi NNW 23.0 mph 29.9 mph 0.00 in Snow Light Snow
6:56 AM 21.0 °F 5.4 °F 15.1 °F 78% 29.88 in 3.0 mi NNW 20.7 mph 27.6 mph 0.00 in Snow Light Snow
7:21 AM 19.4 °F 2.5 °F 12.2 °F 74% 29.82 in 9.0 mi NNW 23.0 mph 33.4 mph 0.00 in Snow Light Snow
7:56 AM 19.9 °F 3.5 °F 10.9 °F 68% 29.89 in 10.0 mi NNW 21.9 mph 29.9 mph 0.00 in   Overcast
8:11 AM 19.4 °F 2.5 °F 10.4 °F 68% 29.83 in 10.0 mi NNW 23.0 mph 31.1 mph N/A   Overcast
8:56 AM 19.9 °F 3.5 °F 10.0 °F 65% 29.90 in 10.0 mi NNW 21.9 mph 32.2 mph N/A   Overcast
9:23 AM 19.4 °F 0.2 °F 10.4 °F 68% 29.82 in 9.0 mi NNW 31.1 mph 36.8 mph 0.00 in Snow Light Snow
9:48 AM 19.4 °F 1.8 °F 12.2 °F 74% 29.82 in 5.0 mi NNW 25.3 mph 32.2 mph 0.00 in Snow Light Snow
9:56 AM 19.9 °F 1.5 °F 10.9 °F 68% 29.89 in 5.0 mi NNW 28.8 mph 35.7 mph 0.00 in Snow Light Snow
10:56 AM 19.9 °F 3.5 °F 10.9 °F 68% 29.91 in 10.0 mi NNW 21.9 mph 28.8 mph 0.00 in   Overcast
11:05 AM 19.4 °F 2.8 °F 10.4 °F 68% 29.85 in 7.0 mi NW 21.9 mph 28.8 mph 0.00 in Snow Light Snow
11:56 AM 19.9 °F 3.9 °F 10.0 °F 65% 29.93 in 8.0 mi NNW 20.7 mph 25.3 mph 0.00 in Snow Light Snow
12:34 PM 19.4 °F 5.0 °F 10.4 °F 68% 29.85 in 10.0 mi NW 16.1 mph 23.0 mph 0.00 in   Overcast
12:56 PM 19.9 °F 5.2 °F 10.9 °F 68% 29.92 in 6.0 mi NW 17.3 mph - 0.00 in Snow Light Snow
1:11 PM 21.2 °F 5.6 °F 10.4 °F 63% 29.84 in 9.0 mi NW 20.7 mph 24.2 mph 0.00 in   Overcast
1:56 PM 21.0 °F 6.2 °F 10.0 °F 63% 29.89 in 10.0 mi WNW 18.4 mph 24.2 mph 0.00 in   Mostly Cloudy
2:56 PM 23.0 °F 8.3 °F 10.9 °F 60% 29.88 in 10.0 mi WNW 19.6 mph 23.0 mph N/A   Scattered Clouds
3:56 PM 19.9 °F 4.8 °F 10.0 °F 65% 29.90 in 10.0 mi NW 18.4 mph 25.3 mph N/A   Partly Cloudy
4:56 PM 19.9 °F 6.7 °F 9.0 °F 62% 29.90 in 10.0 mi NW 13.8 mph - N/A   Scattered Clouds
5:56 PM 18.0 °F 4.2 °F 9.0 °F 68% 29.92 in 10.0 mi NW 13.8 mph - N/A   Clear
6:56 PM 16.0 °F 1.7 °F 8.1 °F 71% 29.93 in 10.0 mi NW 13.8 mph - N/A   Partly Cloudy
7:56 PM 15.1 °F 2.5 °F 8.1 °F 74% 29.94 in 10.0 mi NNW 10.4 mph - N/A   Clear
8:56 PM 12.0 °F -2.0 °F 6.1 °F 77% 29.95 in 10.0 mi North 11.5 mph - N/A   Clear
9:56 PM 10.9 °F 0.2 °F 6.1 °F 81% 29.97 in 10.0 mi NW 6.9 mph - N/A   Clear
10:56 PM 10.9 °F -7.0 °F 3.9 °F 73% 29.98 in 10.0 mi NW 18.4 mph 23.0 mph N/A   Clear
11:56 PM 9.0 °F -8.5 °F 1.9 °F 73% 30.01 in 10.0 mi NW 16.1 mph - N/A   Overcast